EW5678 Weather Reports


Display with metric or nautical units.
time (UTC)temp
F
wind
direction
speed
MPH
gust
MPH
rain 1hr
in
rain 24hr
in
rain mn
in
humidity
%
barometer
mb
20260902073345 64 82 6.0 13.0 0.00 0.23 0.00 96 1008.1
20260902072446 64 52 6.0 15.0 0.00 0.25 0.00 96 1008.0
20260902071545 64 68 7.0 15.0 0.00 0.28 0.00 96 1007.8
20260902065745 65 69 5.0 11.0 0.00 0.48 0.00 96 1007.8
20260902064845 65 72 5.0 15.0 0.00 0.55 0.00 95 1007.8
20260902063946 65 49 4.0 11.0 0.00 0.66 0.00 95 1008.1
20260902063045 65 47 5.0 10.0 0.00 0.71 0.00 95 1008.0
20260902062145 65 65 4.0 10.0 0.00 0.77 0.00 94 1008.0
20260902060345 65 60 4.0 9.0 0.00 0.94 0.00 94 1007.9
20260902055446 65 86 4.0 8.0 0.00 1.00 0.00 94 1007.9
20260902054546 65 82 5.0 14.0 0.00 1.06 0.00 94 1008.1
20260902052745 65 73 7.0 15.0 0.00 1.17 0.00 94 1007.7
20260902051845 65 83 5.0 11.0 0.00 1.23 0.00 94 1007.9
20260902050045 65 85 4.0 12.0 0.00 1.28 0.00 94 1007.9
20260902045145 65 90 6.0 11.0 0.00 1.28 0.00 93 1008.0
20260902044245 64 86 4.0 10.0 0.00 1.28 0.00 94 1007.9
20260902043345 64 77 5.0 13.0 0.00 1.28 0.00 93 1008.0
20260902042445 64 84 7.0 14.0 0.00 1.28 0.00 94 1007.7
20260902041545 64 85 7.0 14.0 0.00 1.28 0.00 94 1007.3
20260902040645 64 97 7.0 16.0 0.00 1.28 0.00 94 1007.3
20260902035745 64 94 8.0 16.0 0.00 1.28 0.00 95 1007.3
20260902033945 64 90 8.0 16.0 0.00 1.28 0.00 95 1007.2
20260902033045 64 93 7.0 16.0 0.00 1.28 0.00 95 1007.3
20260902032145 64 85 5.0 14.0 0.00 1.28 0.00 95 1007.5
20260902031246 64 88 6.0 14.0 0.00 1.28 0.00 94 1007.5
20260902030345 64 84 8.0 20.0 0.00 1.28 0.00 94 1007.4
20260902025445 64 80 8.0 17.0 0.00 1.28 0.00 94 1007.2
20260902024545 64 84 8.0 18.0 0.00 1.28 0.00 94 1007.0
20260902022745 64 91 9.0 18.0 0.00 1.28 0.00 93 1006.8
20260902021845 64 84 7.0 17.0 0.00 1.28 0.00 93 1006.7
20260902020945 64 88 5.0 15.0 0.00 1.28 0.00 93 1006.8
20260902020045 64 82 7.0 15.0 0.00 1.28 0.00 93 1006.6
20260902015145 64 94 7.0 16.0 0.00 1.28 0.00 93 1006.4
20260902014245 64 81 6.0 15.0 0.00 1.28 0.00 93 1006.3
20260902013345 65 78 9.0 20.0 0.00 1.28 0.00 93 1006.2
20260902012445 65 88 8.0 17.0 0.00 1.28 0.00 93 1005.8
20260902011545 65 80 7.0 16.0 0.00 1.28 0.00 93 1005.7
20260902010645 65 83 8.0 16.0 0.00 1.28 0.00 93 1005.6
20260902003945 66 83 9.0 21.0 0.00 1.28 0.00 93 1005.3
20260902003045 66 77 8.0 20.0 0.00 1.28 0.00 93 1005.4
20260902001245 67 87 10.0 18.0 0.00 1.28 0.00 93 1005.4
20260902000346 67 86 8.0 19.0 0.00 1.28 0.00 93 1005.3
20260901235445 68 118 5.0 12.0 0.00 1.28 1.28 94 1004.9
20260901234545 68 133 5.0 13.0 0.00 1.28 1.28 95 1005.0
20260901233645 69 93 4.0 11.0 0.00 1.28 1.28 95 1005.1
20260901232745 69 86 8.0 18.0 0.00 1.28 1.28 96 1005.0
20260901231845 69 84 10.0 18.0 0.00 1.28 1.28 96 1004.7
20260901230945 69 74 7.0 14.0 0.00 1.28 1.28 96 1004.9
20260901224245 70 87 6.0 13.0 0.00 1.28 1.28 96 1004.5
20260901223345 70 84 6.0 13.0 0.00 1.28 1.28 96 1004.5
20260901222445 70 80 5.0 13.0 0.00 1.28 1.28 96 1004.5
20260901221545 70 90 6.0 14.0 0.00 1.28 1.28 96 1004.5
20260901215745 71 90 7.0 14.0 0.00 1.28 1.28 96 1004.4
20260901214845 71 82 6.0 15.0 0.00 1.28 1.28 96 1004.4
20260901213945 71 90 5.0 12.0 0.00 1.28 1.28 95 1004.4
20260901213045 71 253 5.0 14.0 0.00 1.28 1.28 95 1004.6
20260901212146 72 16 4.0 9.0 0.00 1.28 1.28 95 1004.5
20260901211246 72 69 4.0 9.0 0.00 1.28 1.28 95 1004.7
20260901210345 72 81 4.0 11.0 0.00 1.28 1.28 94 1004.6
20260901205445 73 57 6.0 12.0 0.00 1.28 1.28 94 1004.5
20260901204545 73 42 5.0 10.0 0.00 1.28 1.28 95 1004.4
20260901203645 73 39 8.0 12.0 0.00 1.28 1.28 95 1004.3
20260901202745 73 46 8.0 13.0 0.00 1.28 1.28 95 1004.3
20260901200945 75 38 5.0 11.0 0.00 1.28 1.28 92 1004.2
20260901200045 76 187 1.0 3.0 0.00 1.28 1.28 88 1004.2
20260901195145 76 164 2.0 3.0 0.00 1.28 1.28 89 1004.2
20260901193345 76 178 2.0 5.0 0.00 1.28 1.28 89 1004.2
20260901192445 76 183 3.0 6.0 0.00 1.28 1.28 90 1004.2
20260901191545 76 177 4.0 6.0 0.00 1.28 1.28 90 1004.1
20260901190645 76 171 3.0 7.0 0.00 1.28 1.28 89 1004.1
20260901185745 76 165 4.0 8.0 0.00 1.28 1.28 89 1004.2
20260901184845 76 176 2.0 4.0 0.00 1.28 1.28 90 1004.1
20260901183945 75 176 3.0 7.0 0.00 1.28 1.28 93 1004.1
20260901183045 74 168 5.0 9.0 0.00 1.28 1.28 93 1004.3
20260901182145 73 165 6.0 11.0 0.00 1.28 1.28 94 1004.1
20260901181245 73 170 5.0 10.0 0.00 1.28 1.28 96 1004.2
20260901180345 72 164 6.0 10.0 0.00 1.28 1.28 97 1004.3
20260901175445 71 164 7.0 11.0 0.01 1.28 1.28 97 1004.1
20260901174545 71 164 7.0 12.0 0.01 1.28 1.28 97 1004.2
20260901173645 71 165 7.0 13.0 0.01 1.28 1.28 97 1004.4
20260901172745 71 169 4.0 10.0 0.02 1.28 1.28 98 1004.4
20260901171845 71 164 7.0 12.0 0.04 1.28 1.28 98 1004.3
20260901170945 71 164 7.0 13.0 0.05 1.28 1.28 98 1004.3
20260901170045 70 167 8.0 13.0 0.06 1.27 1.27 98 1004.4
20260901164245 70 166 6.0 10.0 0.07 1.27 1.27 98 1005.0
20260901163345 70 167 5.0 9.0 0.07 1.27 1.27 98 1005.3
20260901162445 70 166 6.0 10.0 0.06 1.26 1.26 98 1005.2
20260901161545 70 169 6.0 11.0 0.04 1.23 1.23 98 1005.3
20260901160645 69 179 5.0 10.0 0.03 1.22 1.22 98 1005.5
20260901155745 69 164 6.0 10.0 0.03 1.21 1.21 98 1005.6
20260901154845 69 170 5.0 9.0 0.05 1.20 1.20 98 1005.6
20260901153945 69 164 7.0 12.0 0.07 1.20 1.20 98 1005.4
20260901153045 69 167 8.0 13.0 0.08 1.20 1.20 97 1005.3
20260901152145 69 167 8.0 12.0 0.08 1.20 1.20 97 1005.4
20260901151245 69 164 8.0 12.0 0.07 1.19 1.19 97 1005.4
20260901150345 69 163 8.0 12.0 0.07 1.19 1.19 97 1005.5
20260901144545 69 153 3.0 7.0 0.04 1.14 1.15 97 1005.9
20260901143645 69 158 1.0 6.0 0.03 1.13 1.13 97 1005.9
20260901142745 69 133 2.0 7.0 0.02 1.12 1.12 97 1005.9
20260901141845 69 146 0.0 4.0 0.02 1.12 1.12 96 1006.1
20260901140945 69 191 2.0 8.0 0.02 1.12 1.12 96 1006.0
20260901140045 69 170 2.0 7.0 0.02 1.12 1.12 96 1005.9
20260901135145 69 172 2.0 7.0 0.01 1.11 1.12 97 1005.8
20260901134245 69 165 6.0 9.0 0.00 1.10 1.10 96 1005.9
20260901132445 69 162 6.0 10.0 0.00 1.10 1.10 97 1005.5
20260901130645 69 167 6.0 10.0 0.01 1.10 1.10 97 1005.7
20260901125745 69 164 7.0 10.0 0.01 1.10 1.10 97 1005.7
20260901124845 69 166 7.0 10.0 0.01 1.10 1.10 97 1005.7
20260901123945 68 165 7.0 11.0 0.01 1.10 1.10 97 1005.8
20260901123045 68 174 4.0 8.0 0.01 1.10 1.10 97 1006.0
20260901122145 68 169 6.0 9.0 0.01 1.10 1.10 97 1005.9
20260901120345 68 169 7.0 11.0 0.00 1.09 1.09 97 1005.8
20260901115445 68 165 8.0 11.0 0.00 1.09 1.09 97 1005.7
20260901114545 68 169 6.0 10.0 0.00 1.09 1.09 97 1005.8
20260901113645 68 165 7.0 11.0 0.00 1.09 1.09 97 1005.9
20260901112745 67 165 6.0 10.0 0.00 1.09 1.09 97 1005.8
20260901111845 67 167 6.0 10.0 0.00 1.09 1.09 97 1005.8
20260901110945 67 166 7.0 10.0 0.00 1.09 1.09 97 1005.8
20260901110045 67 164 9.0 11.0 0.00 1.09 1.09 97 1005.7
20260901104245 67 164 7.0 11.0 0.00 1.09 1.09 97 1005.6
20260901103345 67 164 8.0 11.0 0.00 1.09 1.09 97 1005.5
20260901102445 67 164 6.0 11.0 0.00 1.09 1.09 97 1005.6
20260901100645 67 148 3.0 6.0 0.00 1.09 1.09 97 1005.8
20260901095745 67 156 3.0 6.0 0.01 1.09 1.09 97 1005.6
20260901094845 67 154 3.0 7.0 0.01 1.09 1.09 97 1005.6
20260901093945 67 171 2.0 7.0 0.01 1.09 1.09 97 1005.7
20260901092145 67 157 1.0 6.0 0.01 1.09 1.09 97 1005.8
20260901091245 67 156 3.0 7.0 0.01 1.09 1.09 97 1005.8
20260901090345 67 163 4.0 7.0 0.02 1.08 1.08 97 1005.9
20260901082745 67 170 4.0 7.0 0.04 1.08 1.08 97 1006.2
20260901081845 67 176 2.0 6.0 0.05 1.08 1.08 97 1006.3
20260901080945 67 181 3.0 6.0 0.10 1.08 1.08 97 1006.4
20260901080045 67 175 4.0 8.0 0.22 1.06 1.06 97 1006.2